7 * 24
多渠道服务支持
STARLINK-33579 是 SpaceX Starlink 卫星互联网项目中的一颗低轨卫星,属于第三代 Starlink 卫星(v1.5 或 v2 构型)。该卫星于 2023 年发射,旨在为全球用户提供高速、低延迟的宽带互联网服务。它运行在约 550 公里的轨道高度,配备先进通信设备和星间激光链路,提高网络效率与覆盖范围。作为 Starlink 项目的一部分,它支持偏远地区的网络接入,并增强整体星座的冗余与稳定性。
美国
(US)
| 数据来源 | 国际轨道数据 |
| 星历时间: | 2025-11-06T22:53:31+0800 1天前 查看轨道信息 |
| 半长轴: | 6853.256km |
| 偏心率: | 0.0002804 |
| 轨道倾角: | 53.154° |
| 近地点辐角 | 91.572° |
| 升交点赤经 | 173.750° |
| 平近点角 | 268.560° |
| 近地点: | 473.199km |
| 远地点: | 477.043km |
| 周期: | 94.103分钟 |
| 每日圈数: | 15.302323 |